Weather Roundup
Issued by NWS Chicago, IL

Home | Current Version | Previous Version | Text Only | Print | Product List | Glossary Off
Versions: 1 2 3 4 5 6 7 8 9 10 11 12 13 14 15 16 17 18 19 20 21 22 23 24 25 26 27 28 29 30 31 32 33 34 35 36 37 38 39 40 41 42 43 44 45 46 47 48 49 50

000
NZUS59 KLOT 250703
HRRLOT

CHICAGO AREA WEATHER ROUNDUP
NATIONAL WEATHER SERVICE CHICAGO/ROMEOVILLE IL
200 AM CDT WED APR 25 2018

NOTE: "FAIR" INDICATES FEW OR NO CLOUDS BELOW 12,000 FEET WITH NO
SIGNIFICANT WEATHER AND/OR OBSTRUCTIONS TO VISIBILITY.

* THESE STATIONS ARE NOT UNDER NWS QUALITY CONTROL. THEY ALSO MAY NOT
  REPORT WEATHER SUCH AS PRECIPITATION OR FOG.

ILZ005-006-012>014-019>023-250800-
NORTHEAST ILLINOIS

CITY           SKY/WX    TMP DP  RH WIND       PRES   REMARKS
OHARE          CLOUDY    48  32  53 N22       30.04S
MIDWAY         CLOUDY    47  36  65 N18       30.04R
AURORA           N/A     47  37  68 N18       30.04R
LANSING*       CLOUDY    44  40  85 N10       30.02R
JOLIET*          N/A     50  47  87 N10       30.02R
WAUKEGAN       CLOUDY    44  30  57 N16G36    30.04F
DUPAGE AIRPORT   N/A     45  36  70 N17G25    30.04R
WHEELING       CLOUDY    48  31  51 N20G25    30.07R
KANKAKEE*        N/A     47  45  93 N12       30.01S
MORRIS*          N/A     48  46  90 N3        30.02R
LEWIS AIRPORT*   N/A     48  43  85 NE14      30.03R
NORTHERLY ISL    N/A     44  35  70 N22         N/A
$$

WIZ051-052-058>065-066-070>072-250800-
SOUTHEAST WISCONSIN

CITY           SKY/WX    TMP DP  RH WIND       PRES   REMARKS
MILWAUKEE        N/A     43  33  68 N18G33    30.09R
KENOSHA*         N/A     44  29  55 N18G30    30.07R
RACINE*        MOCLDY    42  33  70 N21G33    30.09R
BURLINGTON     CLOUDY    45  32  59 NE18G30   30.09R
WAUKESHA       CLOUDY    43  32  65 NE14G20   30.10R
WEST BEND      MOCLDY    43  32  65 N8        30.10R
$$

INZ001>003-010>013-019-020-250800-
NORTHWEST INDIANA

CITY           SKY/WX    TMP DP  RH WIND       PRES   REMARKS
GARY*          CLOUDY    43  38  83 NW17G24   30.04R
MICHIGAN CITY* NOT AVBL
RENSSELAER*    NOT AVBL
VALPARAISO     FOG       44  42  93 NW10      30.00R VSB 1
$$

LMZ740>746-250800-
SOUTHERN LAKE MICHIGAN

STATION/POSITION TIME  SKY/WX   TEMP WIND        PRES    VSBY
                                AIR  DIR/SP/G
                 (UTC)          (F)  (DEG/KT/KT) (MB)    (MI)
HARRISON CRIB    0640            42  340/ 25/ 30   N/A
BURNHAM HARBOR   0700            44  340/ 20/ 23   N/A
CALUMET HARBOR   0624            42  320/ 18/ 24 1016.5
BURNS HARBOR     0640            40  330/  7/  8 1016.9S
MICHIGAN CITY    0640            41  350/ 10/ 12   N/A
$$

ABBREVIATIONS USED IN REMARKS
   TC - TEMPERATURE IN CELSIUS
  WCI - WIND CHILL INDEX
   HX - HEAT INDEX
  VSB - VISIBILITY
$$




USA.gov is the U.S. government's official web portal to all federal, state and local government web resources and services.